| time (UTC) | temp C | wind direction | speed KPH | gust KPH | rain 1hr cm | rain 24hr cm | rain mn cm | humidity % | barometer mb |
| 20260502221008 | 21 | 26 | 1.6 | 6.4 | 0.00 | 0.91 | 0.00 | 46 | 1017.9 |
| 20260502220505 | 21 | 16 | 1.6 | 6.4 | 0.00 | 0.91 | 0.00 | 45 | 1017.9 |
| 20260502220009 | 21 | 360 | 1.6 | 4.8 | 0.00 | 0.91 | 0.00 | 45 | 1017.9 |
| 20260502215507 | 21 | 5 | 1.6 | 4.8 | 0.00 | 0.94 | 0.00 | 44 | 1017.9 |
| 20260502215007 | 22 | 335 | 1.6 | 4.8 | 0.00 | 0.94 | 0.00 | 46 | 1017.8 |
| 20260502214506 | 22 | 5 | 1.6 | 4.8 | 0.00 | 0.94 | 0.00 | 47 | 1017.9 |
| 20260502213506 | 22 | 84 | 1.6 | 6.4 | 0.00 | 0.94 | 0.00 | 46 | 1017.7 |
| 20260502213008 | 22 | 347 | 1.6 | 9.7 | 0.00 | 0.94 | 0.00 | 45 | 1017.9 |
| 20260502212508 | 22 | 16 | 1.6 | 9.7 | 0.00 | 0.94 | 0.00 | 46 | 1017.9 |
| 20260502212007 | 22 | 11 | 1.6 | 4.8 | 0.00 | 0.94 | 0.00 | 44 | 1017.8 |
| 20260502211507 | 22 | 360 | 1.6 | 4.8 | 0.00 | 0.94 | 0.00 | 44 | 1017.9 |
| 20260502211007 | 22 | 13 | 1.6 | 4.8 | 0.00 | 0.94 | 0.00 | 46 | 1018.0 |
| 20260502210505 | 22 | 30 | 1.6 | 4.8 | 0.00 | 0.94 | 0.00 | 45 | 1018.0 |
| 20260502210008 | 22 | 12 | 1.6 | 6.4 | 0.00 | 1.02 | 0.00 | 44 | 1018.1 |
| 20260502205006 | 22 | 5 | 1.6 | 6.4 | 0.00 | 1.02 | 0.00 | 45 | 1018.3 |
| 20260502204006 | 23 | 336 | 3.2 | 6.4 | 0.00 | 1.02 | 0.00 | 43 | 1018.4 |
| 20260502203504 | 23 | 23 | 3.2 | 8.0 | 0.00 | 1.02 | 0.00 | 46 | 1018.5 |
| 20260502203009 | 23 | 26 | 3.2 | 8.0 | 0.00 | 1.02 | 0.00 | 44 | 1018.5 |
| 20260502202506 | 23 | 279 | 1.6 | 6.4 | 0.00 | 1.02 | 0.00 | 44 | 1018.5 |
| 20260502202008 | 23 | 112 | 1.6 | 4.8 | 0.00 | 1.02 | 0.00 | 46 | 1018.5 |
| 20260502201506 | 23 | 82 | 1.6 | 6.4 | 0.00 | 1.02 | 0.00 | 45 | 1018.6 |
| 20260502201006 | 23 | 13 | 1.6 | 6.4 | 0.00 | 1.02 | 0.00 | 47 | 1018.8 |
| 20260502200505 | 23 | 39 | 3.2 | 6.4 | 0.00 | 1.02 | 0.00 | 45 | 1018.6 |
| 20260502200010 | 23 | 54 | 3.2 | 8.0 | 0.00 | 1.02 | 0.00 | 46 | 1018.7 |
| 20260502195505 | 23 | 12 | 1.6 | 8.0 | 0.00 | 1.22 | 0.00 | 46 | 1018.7 |
| 20260502195010 | 23 | 307 | 1.6 | 4.8 | 0.00 | 1.22 | 0.00 | 47 | 1018.7 |
| 20260502194007 | 23 | 57 | 3.2 | 8.0 | 0.00 | 1.22 | 0.00 | 46 | 1019.0 |
| 20260502193507 | 23 | 60 | 3.2 | 8.0 | 0.00 | 1.22 | 0.00 | 47 | 1019.0 |
| 20260502193007 | 23 | 9 | 3.2 | 6.4 | 0.00 | 1.22 | 0.00 | 50 | 1019.2 |
| 20260502191508 | 23 | 23 | 3.2 | 9.7 | 0.00 | 1.22 | 0.00 | 46 | 1019.3 |
| 20260502191006 | 22 | 5 | 3.2 | 9.7 | 0.00 | 1.22 | 0.00 | 49 | 1019.4 |
| 20260502190508 | 22 | 355 | 3.2 | 9.7 | 0.00 | 1.22 | 0.00 | 47 | 1019.5 |
| 20260502185507 | 22 | 84 | 1.6 | 8.0 | 0.00 | 1.32 | 0.00 | 48 | 1019.3 |
| 20260502185008 | 22 | 46 | 1.6 | 8.0 | 0.00 | 1.32 | 0.00 | 48 | 1019.4 |
| 20260502184507 | 22 | 67 | 1.6 | 6.4 | 0.00 | 1.32 | 0.00 | 47 | 1019.5 |
| 20260502184007 | 22 | 30 | 3.2 | 9.7 | 0.00 | 1.32 | 0.00 | 50 | 1019.6 |
| 20260502183505 | 22 | 66 | 3.2 | 9.7 | 0.00 | 1.32 | 0.00 | 46 | 1019.6 |
| 20260502183008 | 22 | 11 | 3.2 | 6.4 | 0.00 | 1.32 | 0.00 | 52 | 1019.6 |
| 20260502182507 | 22 | 25 | 3.2 | 6.4 | 0.00 | 1.32 | 0.00 | 48 | 1019.6 |
| 20260502182007 | 22 | 123 | 3.2 | 6.4 | 0.00 | 1.32 | 0.00 | 51 | 1019.7 |
| 20260502181507 | 22 | 327 | 3.2 | 4.8 | 0.00 | 1.32 | 0.00 | 51 | 1019.7 |
| 20260502181008 | 22 | 45 | 3.2 | 6.4 | 0.00 | 1.32 | 0.00 | 48 | 1019.8 |
| 20260502180507 | 22 | 38 | 3.2 | 6.4 | 0.00 | 1.32 | 0.00 | 50 | 1019.9 |
| 20260502170505 | 20 | 355 | 1.6 | 4.8 | 0.00 | 1.40 | 0.00 | 59 | 1020.2 |
| 20260502164009 | 20 | 19 | 1.6 | 4.8 | 0.00 | 1.50 | 0.00 | 62 | 1020.5 |
| 20260502163010 | 20 | 26 | 1.6 | 6.4 | 0.00 | 1.50 | 0.00 | 63 | 1020.4 |
| 20260502162506 | 20 | 112 | 1.6 | 4.8 | 0.00 | 1.50 | 0.00 | 63 | 1020.6 |
| 20260502162006 | 19 | 17 | 1.6 | 6.4 | 0.00 | 1.50 | 0.00 | 68 | 1020.5 |
| 20260502161508 | 19 | 53 | 1.6 | 6.4 | 0.00 | 1.50 | 0.00 | 62 | 1020.5 |
| 20260502161007 | 19 | 53 | 1.6 | 8.0 | 0.00 | 1.50 | 0.00 | 65 | 1020.5 |
| 20260502160507 | 18 | 35 | 3.2 | 8.0 | 0.00 | 1.50 | 0.00 | 70 | 1020.4 |
| 20260502152008 | 16 | 30 | 1.6 | 8.0 | 0.00 | 1.65 | 0.00 | 80 | 1020.1 |
| 20260502151506 | 16 | 30 | 0.0 | 4.8 | 0.00 | 1.65 | 0.00 | 84 | 1020.0 |
| 20260502151007 | 16 | 22 | 0.0 | 0.0 | 0.00 | 1.65 | 0.00 | 88 | 1020.0 |
| 20260502150506 | 16 | 26 | 0.0 | 0.0 | 0.00 | 1.65 | 0.00 | 86 | 1019.9 |
| 20260502130505 | 11 | 26 | 1.6 | 4.8 | 0.00 | 2.21 | 0.00 | 96 | 1018.5 |
| 20260502123505 | 10 | 45 | 0.0 | 0.0 | 0.00 | 2.34 | 0.00 | 96 | 1017.9 |
| 20260502123008 | 10 | 45 | 0.0 | 0.0 | 0.00 | 2.34 | 0.00 | 96 | 1017.9 |
| 20260502122505 | 10 | 45 | 0.0 | 0.0 | 0.00 | 2.34 | 0.00 | 96 | 1017.9 |
| 20260502122005 | 10 | 45 | 0.0 | 0.0 | 0.00 | 2.34 | 0.00 | 96 | 1018.0 |
| 20260502121506 | 10 | 45 | 0.0 | 0.0 | 0.00 | 2.34 | 0.00 | 96 | 1018.0 |
| 20260502121005 | 10 | 45 | 0.0 | 0.0 | 0.00 | 2.34 | 0.00 | 96 | 1017.9 |
| 20260502120505 | 10 | 45 | 0.0 | 0.0 | 0.00 | 2.34 | 0.00 | 96 | 1017.8 |
| 20260502115505 | 10 | 45 | 0.0 | 0.0 | 0.00 | 2.34 | 0.00 | 96 | 1017.7 |
| 20260502115005 | 10 | 45 | 0.0 | 0.0 | 0.00 | 2.34 | 0.00 | 96 | 1017.6 |
| 20260502114505 | 10 | 45 | 0.0 | 0.0 | 0.00 | 2.34 | 0.00 | 96 | 1017.5 |
| 20260502114007 | 10 | 45 | 0.0 | 0.0 | 0.00 | 2.34 | 0.00 | 96 | 1017.5 |
| 20260502113504 | 10 | 45 | 0.0 | 0.0 | 0.00 | 2.34 | 0.00 | 96 | 1017.3 |
| 20260502113007 | 10 | 45 | 0.0 | 0.0 | 0.00 | 2.34 | 0.00 | 96 | 1017.3 |
| 20260502112505 | 10 | 45 | 0.0 | 0.0 | 0.00 | 2.34 | 0.00 | 96 | 1017.1 |
| 20260502112007 | 10 | 45 | 0.0 | 0.0 | 0.00 | 2.34 | 0.00 | 96 | 1017.1 |
| 20260502111506 | 10 | 45 | 0.0 | 0.0 | 0.00 | 2.34 | 0.00 | 96 | 1016.9 |
| 20260502111005 | 10 | 45 | 0.0 | 0.0 | 0.00 | 2.34 | 0.00 | 96 | 1016.8 |
| 20260502110505 | 10 | 45 | 0.0 | 0.0 | 0.00 | 2.34 | 0.00 | 96 | 1016.8 |
| 20260502105506 | 10 | 45 | 0.0 | 0.0 | 0.00 | 2.34 | 0.00 | 96 | 1016.8 |
| 20260502104506 | 10 | 46 | 0.0 | 0.0 | 0.00 | 2.34 | 0.00 | 96 | 1016.5 |
| 20260502104005 | 11 | 46 | 0.0 | 0.0 | 0.00 | 2.34 | 0.00 | 96 | 1016.5 |
| 20260502103505 | 11 | 45 | 0.0 | 0.0 | 0.00 | 2.34 | 0.00 | 96 | 1016.4 |
| 20260502103007 | 11 | 45 | 0.0 | 0.0 | 0.00 | 2.34 | 0.00 | 96 | 1016.6 |
| 20260502102506 | 11 | 46 | 0.0 | 0.0 | 0.00 | 2.34 | 0.00 | 96 | 1016.4 |
| 20260502102005 | 11 | 45 | 0.0 | 0.0 | 0.00 | 2.34 | 0.00 | 96 | 1016.3 |
| 20260502101505 | 11 | 46 | 0.0 | 0.0 | 0.00 | 2.34 | 0.00 | 96 | 1016.4 |
| 20260502101005 | 11 | 46 | 0.0 | 0.0 | 0.00 | 2.34 | 0.00 | 96 | 1016.4 |
| 20260502100504 | 11 | 46 | 0.0 | 0.0 | 0.00 | 2.34 | 0.00 | 96 | 1016.4 |
| 20260502091505 | 10 | 46 | 0.0 | 0.0 | 0.00 | 2.34 | 0.00 | 96 | 1016.3 |
| 20260502091006 | 10 | 46 | 0.0 | 0.0 | 0.00 | 2.34 | 0.00 | 96 | 1016.4 |
| 20260502090505 | 10 | 45 | 0.0 | 0.0 | 0.00 | 2.34 | 0.00 | 96 | 1016.5 |
| 20260502071505 | 10 | 45 | 0.0 | 0.0 | 0.00 | 2.34 | 0.00 | 96 | 1016.0 |
| 20260502071005 | 10 | 46 | 0.0 | 0.0 | 0.00 | 2.34 | 0.00 | 96 | 1016.1 |
| 20260502070505 | 10 | 45 | 0.0 | 0.0 | 0.00 | 2.34 | 0.00 | 96 | 1016.0 |
| 20260502070009 | 10 | 45 | 0.0 | 0.0 | 0.00 | 2.34 | 0.00 | 96 | 1016.0 |
| 20260502065506 | 10 | 45 | 0.0 | 0.0 | 0.00 | 2.34 | 0.00 | 96 | 1016.2 |
| 20260502065005 | 10 | 46 | 0.0 | 0.0 | 0.00 | 2.34 | 0.00 | 96 | 1016.3 |
| 20260502064005 | 10 | 45 | 0.0 | 0.0 | 0.00 | 2.34 | 0.00 | 96 | 1016.3 |
| 20260502062506 | 10 | 46 | 0.0 | 0.0 | 0.00 | 2.34 | 0.00 | 96 | 1016.3 |
| 20260502061505 | 10 | 46 | 0.0 | 0.0 | 0.00 | 2.34 | 0.00 | 96 | 1016.5 |
| 20260502061007 | 10 | 45 | 0.0 | 0.0 | 0.00 | 2.34 | 0.00 | 96 | 1016.5 |
| 20260502060505 | 10 | 46 | 0.0 | 0.0 | 0.00 | 2.34 | 0.00 | 96 | 1016.7 |
| 20260502055507 | 10 | 45 | 0.0 | 0.0 | 0.00 | 2.36 | 0.00 | 96 | 1016.8 |
| 20260502055006 | 10 | 46 | 0.0 | 0.0 | 0.00 | 2.36 | 0.00 | 96 | 1016.7 |
| 20260502054507 | 10 | 46 | 0.0 | 0.0 | 0.00 | 2.36 | 0.00 | 96 | 1016.7 |
| 20260502053506 | 10 | 45 | 0.0 | 0.0 | 0.03 | 2.36 | 0.00 | 96 | 1017.0 |
| 20260502053008 | 10 | 46 | 0.0 | 0.0 | 0.03 | 2.36 | 0.00 | 96 | 1017.0 |
| 20260502052507 | 10 | 45 | 0.0 | 0.0 | 0.03 | 2.36 | 0.00 | 96 | 1016.9 |
| 20260502052009 | 10 | 45 | 0.0 | 0.0 | 0.03 | 2.36 | 0.00 | 96 | 1016.7 |
| 20260502051510 | 10 | 46 | 0.0 | 0.0 | 0.03 | 2.36 | 0.00 | 96 | 1016.7 |
| 20260502051008 | 10 | 45 | 0.0 | 0.0 | 0.03 | 2.36 | 0.00 | 96 | 1017.0 |
| 20260502050507 | 10 | 45 | 0.0 | 0.0 | 0.05 | 2.36 | 0.00 | 96 | 1016.8 |
| 20260502050018 | 10 | 45 | 0.0 | 0.0 | 0.05 | 2.36 | 0.00 | 96 | 1016.8 |
| 20260502045506 | 10 | 46 | 0.0 | 0.0 | 0.05 | 2.41 | 2.36 | 96 | 1016.9 |
| 20260502045007 | 10 | 46 | 0.0 | 0.0 | 0.08 | 2.41 | 2.36 | 96 | 1016.8 |
| 20260502044509 | 10 | 46 | 0.0 | 0.0 | 0.08 | 2.41 | 2.36 | 96 | 1016.9 |
| 20260502044008 | 10 | 45 | 0.0 | 0.0 | 0.05 | 2.39 | 2.34 | 96 | 1017.3 |
| 20260502043505 | 10 | 46 | 0.0 | 0.0 | 0.08 | 2.39 | 2.34 | 96 | 1017.0 |
| 20260502043009 | 10 | 46 | 0.0 | 0.0 | 0.08 | 2.39 | 2.34 | 96 | 1016.7 |
| 20260502042007 | 10 | 46 | 0.0 | 0.0 | 0.08 | 2.39 | 2.34 | 96 | 1017.2 |
| 20260502041507 | 10 | 45 | 0.0 | 0.0 | 0.10 | 2.39 | 2.34 | 96 | 1017.3 |
| 20260502041007 | 10 | 45 | 0.0 | 0.0 | 0.10 | 2.39 | 2.34 | 96 | 1017.3 |
| 20260502040505 | 10 | 45 | 0.0 | 0.0 | 0.08 | 2.36 | 2.31 | 96 | 1017.2 |
| 20260502040008 | 10 | 45 | 0.0 | 0.0 | 0.10 | 2.36 | 2.31 | 96 | 1017.1 |
| 20260502035506 | 10 | 45 | 0.0 | 0.0 | 0.10 | 2.36 | 2.31 | 96 | 1017.2 |
| 20260502035005 | 10 | 45 | 0.0 | 0.0 | 0.10 | 2.34 | 2.29 | 96 | 1016.9 |
| 20260502034508 | 10 | 45 | 0.0 | 0.0 | 0.10 | 2.34 | 2.29 | 96 | 1016.8 |
| 20260502034006 | 10 | 46 | 0.0 | 0.0 | 0.10 | 2.34 | 2.29 | 96 | 1016.6 |
| 20260502033505 | 10 | 46 | 0.0 | 0.0 | 0.08 | 2.31 | 2.26 | 96 | 1016.6 |
| 20260502033008 | 10 | 46 | 0.0 | 0.0 | 0.08 | 2.31 | 2.26 | 96 | 1016.8 |
| 20260502032505 | 10 | 45 | 0.0 | 0.0 | 0.10 | 2.31 | 2.26 | 96 | 1016.8 |
| 20260502031506 | 10 | 45 | 0.0 | 0.0 | 0.08 | 2.29 | 2.24 | 95 | 1016.7 |
| 20260502031006 | 10 | 45 | 0.0 | 1.6 | 0.08 | 2.29 | 2.24 | 96 | 1016.5 |
| 20260502030505 | 10 | 45 | 0.0 | 3.2 | 0.08 | 2.29 | 2.24 | 96 | 1016.6 |
| 20260502030007 | 10 | 46 | 0.0 | 1.6 | 0.05 | 2.29 | 2.21 | 95 | 1016.5 |
| 20260502025505 | 10 | 46 | 0.0 | 0.0 | 0.05 | 2.29 | 2.21 | 95 | 1016.5 |
| 20260502024506 | 10 | 46 | 0.0 | 0.0 | 0.03 | 2.26 | 2.18 | 95 | 1016.6 |
| 20260502024006 | 10 | 46 | 0.0 | 3.2 | 0.03 | 2.26 | 2.18 | 95 | 1016.1 |
| 20260502023505 | 10 | 46 | 1.6 | 3.2 | 0.03 | 2.26 | 2.18 | 95 | 1015.7 |
| 20260502023007 | 10 | 46 | 1.6 | 3.2 | 0.03 | 2.26 | 2.18 | 95 | 1015.4 |
| 20260502022505 | 10 | 66 | 1.6 | 3.2 | 0.00 | 2.24 | 2.16 | 95 | 1015.2 |
| 20260502022007 | 10 | 24 | 1.6 | 3.2 | 0.00 | 2.24 | 2.16 | 95 | 1015.8 |
| 20260502021006 | 10 | 24 | 1.6 | 4.8 | 0.03 | 2.24 | 2.16 | 95 | 1016.2 |
| 20260502020505 | 10 | 24 | 1.6 | 4.8 | 0.03 | 2.24 | 2.16 | 95 | 1016.3 |
| 20260502020011 | 10 | 25 | 1.6 | 4.8 | 0.03 | 2.24 | 2.16 | 95 | 1015.9 |
| 20260502015506 | 9 | 28 | 1.6 | 4.8 | 0.05 | 2.24 | 2.16 | 95 | 1015.9 |
| 20260502015007 | 9 | 28 | 1.6 | 4.8 | 0.05 | 2.24 | 2.16 | 95 | 1015.6 |
| 20260502014508 | 9 | 69 | 1.6 | 6.4 | 0.05 | 2.24 | 2.16 | 95 | 1014.9 |
| 20260502014007 | 9 | 70 | 3.2 | 8.0 | 0.05 | 2.24 | 2.16 | 95 | 1014.4 |
| 20260502013506 | 9 | 17 | 3.2 | 8.0 | 0.05 | 2.24 | 2.16 | 95 | 1014.1 |
| 20260502012507 | 9 | 54 | 3.2 | 8.0 | 0.05 | 2.24 | 2.16 | 95 | 1013.9 |
| 20260502012007 | 9 | 53 | 1.6 | 8.0 | 0.08 | 2.24 | 2.16 | 95 | 1014.0 |
| 20260502011507 | 9 | 58 | 1.6 | 4.8 | 0.05 | 2.21 | 2.13 | 95 | 1014.1 |
| 20260502011008 | 9 | 38 | 3.2 | 4.8 | 0.05 | 2.21 | 2.13 | 95 | 1014.2 |
| 20260502010506 | 10 | 90 | 1.6 | 4.8 | 0.08 | 2.21 | 2.13 | 95 | 1014.2 |
| 20260502005506 | 10 | 55 | 1.6 | 6.4 | 0.08 | 2.18 | 2.11 | 95 | 1014.1 |
| 20260502005007 | 10 | 62 | 1.6 | 6.4 | 0.10 | 2.18 | 2.11 | 95 | 1014.2 |
| 20260502004507 | 10 | 41 | 1.6 | 4.8 | 0.13 | 2.18 | 2.11 | 95 | 1014.1 |
| 20260502004006 | 10 | 60 | 1.6 | 4.8 | 0.18 | 2.18 | 2.11 | 95 | 1014.3 |
| 20260502003505 | 10 | 150 | 3.2 | 4.8 | 0.20 | 2.18 | 2.11 | 95 | 1014.3 |
| 20260502003008 | 10 | 69 | 3.2 | 6.4 | 0.25 | 2.18 | 2.11 | 95 | 1014.4 |
| 20260502002506 | 10 | 59 | 3.2 | 6.4 | 0.30 | 2.18 | 2.11 | 95 | 1014.3 |
| 20260502002008 | 10 | 36 | 3.2 | 6.4 | 0.30 | 2.16 | 2.08 | 95 | 1014.5 |
| 20260502001507 | 10 | 61 | 3.2 | 4.8 | 0.33 | 2.16 | 2.08 | 95 | 1014.9 |
| 20260502001008 | 10 | 55 | 3.2 | 4.8 | 0.36 | 2.16 | 2.08 | 95 | 1015.2 |
| 20260502000506 | 10 | 37 | 3.2 | 4.8 | 0.36 | 2.13 | 2.06 | 95 | 1015.3 |
| 20260501235508 | 10 | 58 | 3.2 | 6.4 | 0.36 | 2.11 | 2.03 | 95 | 1015.2 |
| 20260501235008 | 10 | 82 | 1.6 | 6.4 | 0.36 | 2.08 | 2.01 | 95 | 1015.0 |
| 20260501234508 | 11 | 217 | 0.0 | 3.2 | 0.33 | 2.06 | 1.98 | 95 | 1015.2 |
| 20260501234008 | 11 | 34 | 1.6 | 3.2 | 0.30 | 2.01 | 1.93 | 95 | 1015.1 |
| 20260501233506 | 11 | 22 | 0.0 | 3.2 | 0.28 | 1.98 | 1.91 | 96 | 1014.9 |
| 20260501233008 | 11 | 20 | 0.0 | 0.0 | 0.25 | 1.93 | 1.85 | 96 | 1015.0 |
| 20260501232007 | 11 | 20 | 0.0 | 0.0 | 0.23 | 1.85 | 1.78 | 96 | 1015.2 |
| 20260501231507 | 11 | 21 | 0.0 | 0.0 | 0.23 | 1.83 | 1.75 | 95 | 1014.9 |
| 20260501231007 | 11 | 22 | 0.0 | 0.0 | 0.23 | 1.80 | 1.73 | 95 | 1014.8 |
| 20260501230011 | 11 | 22 | 0.0 | 3.2 | 0.23 | 1.75 | 1.68 | 95 | 1014.8 |
| 20260501225505 | 11 | 22 | 1.6 | 4.8 | 0.23 | 1.75 | 1.68 | 95 | 1014.7 |
| 20260501225006 | 11 | 24 | 1.6 | 4.8 | 0.23 | 1.73 | 1.65 | 95 | 1014.3 |
| 20260501224506 | 11 | 26 | 1.6 | 4.8 | 0.23 | 1.73 | 1.65 | 95 | 1014.1 |
| 20260501224006 | 11 | 28 | 0.0 | 4.8 | 0.20 | 1.70 | 1.63 | 95 | 1014.3 |
| 20260501223505 | 11 | 24 | 0.0 | 0.0 | 0.20 | 1.70 | 1.63 | 95 | 1014.5 |
| 20260501223008 | 11 | 24 | 0.0 | 0.0 | 0.18 | 1.68 | 1.60 | 95 | 1014.5 |
| 20260501222505 | 11 | 24 | 0.0 | 0.0 | 0.15 | 1.65 | 1.57 | 95 | 1014.4 |
| 20260501222006 | 11 | 24 | 0.0 | 0.0 | 0.13 | 1.63 | 1.55 | 95 | 1014.3 |
| 20260501221505 | 11 | 24 | 1.6 | 3.2 | 0.10 | 1.60 | 1.52 | 95 | 1014.1 |